Location: Unspecified
(0.0000°N, 0.0000°E)
Time: 17:20:49
(UTC+00:00)

STARLINK 1041 - Pass Details

Date: 22 January 2020
Orbit: 549 x 550 km, 53.0° (Epoch: 23 January)

Event Time Altitude Azimuth Distance (km) Brightness Sun altitude
Rises 04:05:43 0° 192° (SSW) 2,721 7.3 -29.4°
Reaches altitude 10° 04:08:20 10° 176° (S) 1,824 6.5 -28.8°
Maximum altitude 04:11:35 22° 124° (SE) 1,224 6.0 -28.0°
Drops below altitude 10° 04:14:49 10° 73° (ENE) 1,816 6.9 -27.3°
Sets 04:17:25 0° 57° (ENE) 2,705 7.6 -26.7°
